Iron Mountain, MI

1:11 PM CST on February 12, 2016 (GMT -0600)
Ford

Weather History for KIMT - October, 2011

Change the Weather History Date:

Saturday, October 15, 2011

  Actual Average Record
Temperature  
Mean Temperature 46 °F -  
Max Temperature 51 °F 57 °F 88 °F (1947)
Min Temperature 43 °F 36 °F 16 °F (1944)
Degree Days  
Heating Degree Days 18    
Moisture  
Dew Point 32 °F    
Average Humidity 60    
Maximum Humidity 80    
Minimum Humidity 44    
Precipitation  
Precipitation 0.00 in - - ()
Sea Level Pressure  
Sea Level Pressure 29.57 in    
Wind  
Wind Speed 20 mph (WNW)    
Max Wind Speed 29 mph    
Max Gust Speed 40 mph    
Visibility 10 miles    
Events      
Averages and records for this station are not official NWS values.
T = Trace of Precipitation, MM = Missing Value Source: NWS Daily Summary

Daily Weather History Graph

Daily Weather History Graph

Search for Another Location

Airport or City:

Trip Planner

Search our weather history database for the weather conditions in past years. The results will help you decide how hot, cold, wet, or windy it might be!

Date:

Astronomy

Oct. 15, 2011 Rise Set
Actual Time 7:08 AM CDT 6:06 PM CDT
Civil Twilight 6:38 AM CDT 6:36 PM CDT
Nautical Twilight 6:04 AM CDT 7:11 PM CDT
Astronomical Twilight 5:29 AM CDT 7:45 PM CDT
Moon 7:50 PM CDT (10/15) 10:45 AM CDT (10/15)
Length of Visible Light 11h 58m
Length of Day
10h 58m
Waning Gibbous, 89% of the Moon is Illuminated
Oct 15
Waning Gibbous
Oct 19
Last Quarter
Oct 26
New
Nov 2
First Quarter
Nov 10
Full

Hourly Weather History & Observations

Time (CDT) Temp. Windchill Dew Point Humidity Pressure Visibility Wind Dir Wind Speed Gust Speed Precip Events Conditions
1:54 AM 43.0 °F 33.5 °F 37.0 °F 80% 29.43 in 10.0 mi WNW 24.2 mph 33.4 mph 0.00 in   Overcast
2:54 AM 44.1 °F 34.4 °F 35.1 °F 71% 29.44 in 10.0 mi WNW 27.6 mph 34.5 mph N/A   Overcast
3:05 AM 44.6 °F 36.1 °F 35.6 °F 71% 29.43 in 10.0 mi WNW 21.9 mph 33.4 mph N/A   Overcast
3:54 AM 44.1 °F 35.0 °F 34.0 °F 68% 29.46 in 10.0 mi WNW 24.2 mph 34.5 mph N/A   Overcast
4:54 AM 44.1 °F 35.0 °F 33.1 °F 65% 29.47 in 10.0 mi WNW 24.2 mph 34.5 mph N/A   Mostly Cloudy
5:54 AM 44.1 °F 36.5 °F 33.1 °F 65% 29.49 in 10.0 mi WNW 17.3 mph 31.1 mph N/A   Mostly Cloudy
6:54 AM 44.1 °F 34.2 °F 32.0 °F 63% 29.51 in 10.0 mi WNW 28.8 mph 40.3 mph 0.00 in   Overcast
7:54 AM 44.1 °F 35.2 °F 32.0 °F 63% 29.52 in 10.0 mi WNW 23.0 mph 32.2 mph N/A   Overcast
8:54 AM 44.1 °F 36.2 °F 32.0 °F 63% 29.54 in 10.0 mi NW 18.4 mph 31.1 mph N/A   Overcast
9:54 AM 44.1 °F 35.2 °F 30.9 °F 60% 29.56 in 10.0 mi NW 23.0 mph 38.0 mph N/A   Overcast
10:54 AM 45.0 °F 37.4 °F 32.0 °F 60% 29.58 in 10.0 mi WNW 18.4 mph 36.8 mph N/A   Overcast
11:54 AM 48.0 °F - 30.9 °F 52% 29.59 in 10.0 mi WNW 23.0 mph 38.0 mph N/A   Overcast
12:54 PM 50.0 °F - 30.0 °F 46% 29.60 in 10.0 mi WNW 20.7 mph 33.4 mph N/A   Overcast
1:54 PM 50.0 °F - 28.9 °F 44% 29.61 in 10.0 mi WNW 18.4 mph 32.2 mph N/A   Mostly Cloudy
2:54 PM 50.0 °F - 30.0 °F 46% 29.62 in 10.0 mi WNW 19.6 mph 31.1 mph N/A   Mostly Cloudy
3:54 PM 50.0 °F - 28.9 °F 44% 29.63 in 10.0 mi WNW 23.0 mph 34.5 mph 0.00 in   Mostly Cloudy
5:54 PM 48.9 °F - 30.0 °F 48% 29.65 in 10.0 mi West 11.5 mph 26.5 mph N/A   Clear
6:54 PM 46.9 °F - 30.9 °F 54% 29.66 in 10.0 mi West 6.9 mph - N/A   Clear
7:54 PM 46.0 °F 43.1 °F 30.9 °F 56% 29.66 in 10.0 mi West 5.8 mph - N/A   Clear
8:54 PM 44.1 °F 41.5 °F 30.9 °F 60% 29.66 in 10.0 mi West 4.6 mph - N/A   Clear
9:54 PM 43.0 °F 39.5 °F 30.9 °F 62% 29.67 in 10.0 mi West 5.8 mph - N/A   Clear
10:54 PM 44.1 °F 39.5 °F 32.0 °F 63% 29.68 in 10.0 mi WNW 8.1 mph - N/A   Clear
11:54 PM 43.0 °F 37.7 °F 32.0 °F 65% 29.68 in 10.0 mi West 9.2 mph - N/A   Clear